User: anonymous   Login
Location: Fort Wayne
(41.1310°N, 85.1290°W)
Time: 16:45:35
(UTC-04:00)
Language:

Cosmos 2082 - Orbit

View from above orbital plane
View from above orbital plane
View from above satellite
View from above satellite

Ground track
Ground track

The orbit data is extracted from the following two-line orbital elements,

1 20624U 90046A   18114.55344164 -.00000051  00000-0 -19937-5 0  9992
2 20624  71.0390 282.8582 0017210 272.3354  87.5798 14.14250259441217
Epoch (UTC): 24 April 2018 13:16:57
Eccentricity: 0.0017210
inclination: 71.0390°
perigee height: 832 km
apogee height: 857 km
right ascension of ascending node: 282.8582°
argument of perigee: 272.3354°
revolutions per day: 14.14250259
mean anomaly at epoch: 87.5798°
orbit number at epoch: 44121

The dashed part of the orbit path shows where the satellite is in the earth's shadow,  

DLR